This demonstration page uses our WeatherBlox Daily Observations layout. Learn more.

Hourly Observations for January 22, 2020

Temp ( °F °C ) Dew Point ( °F °C ) Humidity (%) Winds ( mph kmh ) Pressure ( in mb ) Visibility ( mi km ) Precip ( " mm )
12:16 am 00:16 Clear 19 -7 19 -7 100 100 SSE 6 9 30.52 1034 10 16.0934 N/A
12:36 am 00:36 Clear 19 -7 19 -7 100 100 SSE 6 9 30.51 1033 10 16.0934 N/A
12:56 am 00:56 Clear 19 -7 19 -7 100 100 S 5 7 30.5 1033 10 16.0934 N/A
1:15 am 01:15 Clear 19 -7 19 -7 100 100 S 6 9 30.5 1033 10 16.0934 N/A
1:35 am 01:35 Clear 19 -7 19 -7 100 100 S 5 7 30.49 1033 10 16.0934 N/A
1:55 am 01:55 Clear 19 -7 19 -7 100 100 S 6 9 30.48 1032 10 16.0934 N/A
2:16 am 02:16 Clear 19 -7 19 -7 100 100 S 5 7 30.48 1032 10 16.0934 N/A
2:36 am 02:36 Clear 19 -7 18 -8 93 93 S 6 9 30.48 1032 10 16.0934 N/A
2:55 am 02:55 Clear 18 -8 18 -8 100 100 S 6 9 30.48 1032 10 16.0934 N/A
3:15 am 03:15 Clear 18 -8 18 -8 100 100 S 5 7 30.48 1032 10 16.0934 N/A
3:35 am 03:35 Clear 19 -7 18 -8 93 93 SSE 6 9 30.46 1032 10 16.0934 N/A
3:55 am 03:55 Clear 19 -7 18 -8 93 93 SSE 6 9 30.45 1031 10 16.0934 N/A
4:16 am 04:16 Clear 19 -7 18 -8 93 93 S 3 6 30.44 1031 10 16.0934 N/A
4:36 am 04:36 Clear 18 -8 18 -8 100 100 S 5 7 30.46 1031 10 16.0934 N/A
4:55 am 04:55 Clear 19 -7 18 -8 93 93 S 6 9 30.44 1031 10 16.0934 N/A
5:16 am 05:16 Clear 18 -8 18 -8 100 100 S 3 6 30.45 1031 10 16.0934 N/A
5:35 am 05:35 Clear 18 -8 16 -9 93 93 SSW 5 7 30.45 1031 10 16.0934 N/A
5:56 am 05:56 Clear 18 -8 18 -8 100 100 S 6 9 30.44 1031 10 16.0934 N/A
6:15 am 06:15 Clear 18 -8 18 -8 100 100 S 5 7 30.44 1031 10 16.0934 N/A
6:36 am 06:36 Clear 18 -8 18 -8 100 100 S 5 7 30.42 1030 10 16.0934 N/A
6:56 am 06:56 Clear 18 -8 18 -8 100 100 S 5 7 30.43 1030 10 16.0934 N/A
7:15 am 07:15 Clear 18 -8 18 -8 100 100 S 3 6 30.44 1031 10 16.0934 N/A
7:35 am 07:35 Clear 18 -8 18 -8 100 100 S 3 6 30.44 1031 10 16.0934 N/A
7:55 am 07:55 Clear 18 -8 16 -9 93 93 Calm 30.44 1031 10 16.0934 N/A
8:16 am 08:16 Sunny 18 -8 18 -8 100 100 Calm 30.44 1031 10 16.0934 N/A
8:35 am 08:35 Sunny 19 -7 18 -8 93 93 Calm 30.43 1031 10 16.0934 N/A
8:56 am 08:56 Sunny 19 -7 19 -7 100 100 S 5 7 30.43 1031 10 16.0934 N/A
9:16 am 09:16 Sunny 21 -6 19 -7 93 93 S 5 7 30.45 1031 10 16.0934 N/A
9:36 am 09:36 Sunny 21 -6 19 -7 93 93 S 8 13 30.45 1031 10 16.0934 N/A
9:55 am 09:55 Sunny 23 -5 21 -6 93 93 S 9 15 30.45 1031 10 16.0934 N/A
10:15 am 10:15 Sunny 23 -5 21 -6 93 93 SSW 7 11 30.45 1031 10 16.0934 N/A
10:36 am 10:36 Sunny 25 -4 21 -6 86 86 SSW 10 17 30.45 1031 10 16.0934 N/A
10:56 am 10:56 Sunny 25 -4 21 -6 86 86 SSW 9 15 30.45 1031 10 16.0934 N/A
11:16 am 11:16 Sunny 27 -3 21 -6 80 80 S 7 11 30.45 1031 10 16.0934 N/A
11:35 am 11:35 Sunny 27 -3 21 -6 80 80 S 10 17 30.44 1031 10 16.0934 N/A
11:56 am 11:56 Sunny 28 -2 23 -5 80 80 SSW 10 17 30.41 1030 10 16.0934 N/A
12:15 pm 12:15 Sunny 28 -2 23 -5 80 80 S 10 17 30.39 1029 10 16.0934 N/A
12:35 pm 12:35 Sunny 30 -1 23 -5 75 75 S 12 19 30.38 1029 10 16.0934 N/A
12:55 pm 12:55 Sunny 30 -1 23 -5 75 75 S 9 15 30.37 1028 10 16.0934 N/A
1:15 pm 13:15 Sunny 30 -1 23 -5 75 75 S 9 15 30.36 1028 10 16.0934 N/A
1:36 pm 13:36 Sunny 30 -1 23 -5 75 75 S 10 17 30.36 1028 10 16.0934 N/A
1:56 pm 13:56 Sunny 32 0 23 -5 69 69 SSW 9 15 30.34 1027 10 16.0934 N/A
2:16 pm 14:16 Sunny 32 0 23 -5 69 69 S 9 15 30.33 1027 10 16.0934 N/A
2:36 pm 14:36 Sunny 32 0 23 -5 69 69 SSE 10 17 30.32 1027 10 16.0934 N/A
2:55 pm 14:55 Sunny 32 0 23 -5 69 69 SSE 10 17 30.32 1027 10 16.0934 N/A
3:16 pm 15:16 Sunny 32 0 25 -4 75 75 S 8 13 30.32 1027 10 16.0934 N/A
3:35 pm 15:35 Sunny 32 0 23 -5 69 69 SSE 10 17 30.31 1026 10 16.0934 N/A
3:55 pm 15:55 Sunny 34 1 25 -4 70 70 SSE 12 19 30.3 1026 10 16.0934 N/A
4:16 pm 16:16 Sunny 34 1 23 -5 65 65 SSE 10 17 30.29 1026 10 16.0934 N/A
4:36 pm 16:36 Sunny 34 1 23 -5 65 65 SSE 8 13 30.28 1025 10 16.0934 N/A
4:56 pm 16:56 Sunny 34 1 23 -5 65 65 SSE 8 13 30.28 1025 10 16.0934 N/A
5:15 pm 17:15 Sunny 32 0 23 -5 69 69 SSE 10 17 30.28 1025 10 16.0934 N/A
5:35 pm 17:35 Sunny 32 0 25 -4 75 75 SSE 7 11 30.29 1026 10 16.0934 N/A
5:55 pm 17:55 Clear 32 0 25 -4 75 75 S 5 7 30.29 1026 10 16.0934 N/A
6:16 pm 18:16 Clear 32 0 25 -4 75 75 S 5 7 30.3 1026 10 16.0934 N/A
6:36 pm 18:36 Clear 32 0 25 -4 75 75 SSE 7 11 30.29 1026 10 16.0934 N/A
6:56 pm 18:56 Clear 32 0 25 -4 75 75 SSE 7 11 30.29 1026 10 16.0934 N/A
7:15 pm 19:15 Clear 32 0 25 -4 75 75 SSE 3 6 30.29 1026 10 16.0934 N/A
7:35 pm 19:35 Clear 30 -1 25 -4 80 80 SSE 6 9 30.29 1026 10 16.0934 N/A
7:55 pm 19:55 Clear 32 0 25 -4 75 75 SE 8 13 30.28 1025 10 16.0934 N/A
8:16 pm 20:16 Clear 32 0 27 -3 80 80 SSE 6 9 30.28 1025 10 16.0934 N/A
8:36 pm 20:36 Clear 32 0 25 -4 75 75 SSE 7 11 30.27 1025 10 16.0934 N/A
8:55 pm 20:55 Clear 32 0 25 -4 75 75 S 7 11 30.27 1025 10 16.0934 N/A
9:15 pm 21:15 Clear 32 0 25 -4 75 75 S 5 7 30.28 1025 10 16.0934 N/A
9:35 pm 21:35 Clear 32 0 25 -4 75 75 SSE 6 9 30.27 1025 10 16.0934 N/A
9:56 pm 21:56 Clear 32 0 25 -4 75 75 SSE 10 17 30.26 1025 10 16.0934 N/A
10:16 pm 22:16 Clear 32 0 25 -4 75 75 SSE 8 13 30.26 1025 10 16.0934 N/A
10:35 pm 22:35 Clear 32 0 25 -4 75 75 SSE 9 15 30.26 1025 10 16.0934 N/A
10:56 pm 22:56 Clear 32 0 25 -4 75 75 SSE 7 11 30.26 1025 10 16.0934 N/A
11:15 pm 23:15 Clear 32 0 25 -4 75 75 S 7 11 30.26 1025 10 16.0934 N/A
11:35 pm 23:35 Clear 32 0 25 -4 75 75 S 7 11 30.26 1025 10 16.0934 N/A
11:55 pm 23:55 Clear 32 0 25 -4 75 75 S 7 11 30.26 1025 10 16.0934 N/A

Powered by AerisWeather